This demonstration page uses our WeatherBlox Daily Observations layout. Learn more.

Left ArrowRight Arrow

41.12389, -100.76542

Hourly Observations for January 22, 2018

Temp ( °F °C ) Dew Point ( °F °C ) Humidity (%) Winds ( mph kmh ) Pressure ( in mb ) Visibility ( mi km ) Precip ( " mm )
12:53 am 00:53 Mostly Cloudy with Freezing Fog 29 -1.7 27 -2.8 92 92 N 22 35 29.78 1008 1 1 0.00 0.00
1:53 am 01:53 Mostly Cloudy with Mist and Fog 30 -1.1 27 -2.8 88 88 N 24 39 29.78 1009 1 1 0.00 0.00
2:00 am 02:00 Mostly Cloudy with Mist and Fog 30 -1.1 27 -2.8 88 88 N 25 41 29.85 1011 1 1 0.00 0.00
2:53 am 02:53 Cloudy with Mist and Fog 29 -1.7 26 -3.3 89 89 N 25 41 29.81 1010 1 2 0.00 0.00
3:21 am 03:21 Cloudy with Mist and Fog 30 -1.1 26 -3.3 85 85 NNW 28 44 29.88 1012 1 2 0.00 0.00
3:53 am 03:53 Cloudy with Mist and Fog 29 -1.7 26 -3.3 89 89 NNW 24 39 29.83 1010 1 2 0.00 0.00
4:13 am 04:13 Mostly Cloudy with Mist and Fog 29 -1.7 26 -3.3 89 89 NNW 25 41 29.88 1012 1 2 0.00 0.00
4:40 am 04:40 Cloudy with Mist and Fog 29 -1.7 25 -3.9 85 85 NNW 23 37 29.88 1012 1 2 0.00 0.00
4:53 am 04:53 Mostly Cloudy with Mist and Fog 28 -2.2 25 -3.9 88 88 NNW 23 37 29.85 1011 1 2 0.00 0.00
5:23 am 05:23 Cloudy with Mist and Fog 28 -2.2 25 -3.9 88 88 NNW 24 39 29.94 1014 1 2 0.00 0.00
5:53 am 05:53 Cloudy with Mist and Fog 28 -2.2 25 -3.9 88 88 NNW 23 37 29.87 1012 2 2 0.00 0.00
6:26 am 06:26 Cloudy with Haze 29 -1.7 24 -4.4 82 82 NNW 24 39 29.97 1015 2 3 0.00 0.00
6:53 am 06:53 Windy with Snow Likely 29 -1.7 24 -4.4 82 82 NNW 25 41 29.91 1013 2 3 0.00 0.03
7:01 am 07:01 Windy with Snow Likely 28 -2.2 24 -4.4 85 85 NNW 23 37 29.97 1015 2 3 0.00 0.03
7:13 am 07:13 Windy with Snow Likely 28 -2.2 24 -4.4 85 85 NNW 24 39 29.97 1015 2 3 0.00 0.03
7:30 am 07:30 Windy with Snow Likely 28 -2.2 24 -4.4 85 85 NW 23 37 29.97 1015 2 2 0.00 0.03
7:40 am 07:40 undefined 28 -2.2 24 -4.4 85 85 undefined N/A 29.97 1015 N/A 0.00 0.03
7:53 am 07:53 undefined N/A N/A N/A undefined N/A N/A N/A 0.00 0.03
8:53 am 08:53 undefined N/A N/A N/A undefined N/A N/A N/A 0.00 0.00
9:53 am 09:53 Cloudy with Light Wintry Mix 28 -2.2 21 -6.1 75 75 NW 21 33 29.94 1014 9 14 0.00 0.03
10:53 am 10:53 Partly Cloudy 29 -1.7 21 -6.1 72 72 NNW 21 33 29.96 1015 10 16 0.00 0.03
11:53 am 11:53 Sunny with Light Wintry Mix 30 -1.1 21 -6.1 69 69 NNW 24 39 29.96 1015 9 14 0.00 0.03
12:53 pm 12:53 Sunny with Light Wintry Mix 30 -1.1 21 -6.1 69 69 NNW 24 39 29.96 1015 9 14 0.00 0.03
1:53 pm 13:53 Sunny 32 0 21 -6.1 64 64 NW 21 33 29.94 1014 10 16 0.00 0.03
2:53 pm 14:53 Sunny 34 1.1 21 -6.1 59 59 NNW 18 30 29.95 1014 10 16 0.00 0.03
3:53 pm 15:53 Sunny 33 0.6 21 -6.1 61 61 NNW 17 28 29.98 1015 10 16 0.00 0.00
4:53 pm 16:53 Sunny 30 -1.1 19 -7.2 64 64 NW 14 22 30.02 1017 10 16 0.00 0.00
5:53 pm 17:53 Clear 28 -2.2 17 -8.3 63 63 WNW 15 24 30.06 1018 10 16 0.00 0.00
6:53 pm 18:53 Clear 22 -5.6 14 -10 71 71 WNW 10 17 30.08 1019 10 16 0.00 0.00
7:53 pm 19:53 Clear 19 -7.2 11 -11.7 71 71 WNW 10 17 30.24 1024 10 16 0.00 0.00
8:53 pm 20:53 Clear 21 -6.1 12 -11.1 68 68 WNW 15 24 30.21 1023 10 16 0.00 0.00
9:53 pm 21:53 Clear 15 -9.4 8 -13.3 74 74 NW 9 15 30.14 1021 10 16 0.00 0.00
10:53 pm 22:53 Clear 17 -8.3 8 -13.3 68 68 NW 13 20 30.15 1021 10 16 0.00 0.00
11:53 pm 23:53 Clear 16 -8.9 8 -13.3 71 71 WNW 13 20 30.16 1021 10 16 0.00 0.00

Powered by AerisWeather